Location: Malanoce
(44.2500°N, 7.4667°E)
Time: 22:15:08
(UTC+00:00)

Resurs 1-3 - Pass Details

Date: 17 November 2025
Orbit: 613 x 615 km, 97.7° (Epoch: 11 December)

Event Time Altitude Azimuth Distance (km) Brightness Sun altitude
Rises 18:15:27 0° 176° (S) 2,870 7.0 -23.9°
Reaches altitude 10° 18:17:39 10° 180° (S) 1,969 6.2 -24.3°
Maximum altitude 18:21:52 58° 260° (W) 719 4.1 -25.0°
Drops below altitude 10° 18:26:08 10° 340° (NNW) 1,984 6.3 -25.8°
Sets 18:28:21 0° 344° (NNW) 2,894 7.2 -26.2°
